Content
SEND FEEDBACK

Daily
Averages
Monthly
Summary
United States of America

EL PASO, TEXAS


Home > North America > United States > Texas
Elevation: 1194 meters     Latitude: 31 48N     Longitude: 106 24W

WEATHER
 
SELECT A DAY
Number of Records: 175,935;   Date Range: 1/1/95 - 12/18/14
 
SHARE

PRINT THIS DATA

[ ← Previous Day ]
WEATHER ALMANAC - 20 MARCH, 2013
[ Next Day → ]
[ °F ]   °C
Weather ElementAverageHighLow
Temperature15.4 °C21.7 °C (4:51 pm)7.8 °C (6:51 am)
Dewpoint-2.2 °C0 °C (10:51 am)-7.2 °C (1:51 am)
Humidity31.7 %51 % (7:51 am)19 % (4:51 pm)
Barometer1014.6 hPa1019.6 hPa (7:51 am)1008.8 hPa (10:51 pm)
Wind Speed9.5 km/h20.4 km/h (12:51 pm)
Wind Gust25.9 km/h (11:51 am)
Weather ElementAverage
Visibility16.1 km
Wind DirectionE (87 °)

Weather ElementTotal
Precipitation---
Heating Degree Days3.6 (Base 18.3)
Growing Degree Days4.8 (Base 10)
Averaged from 23 records on 20 March, 2013
WEATHER CONDITIONS BREAKOUT
WIND DIRECTION BREAKOUT
WEATHER BY HOUR - 20 MARCH, 2013
[ °F ]   °C
Local TimeTemperatureDewpointHumidityBarometerVisibilityWind DirectionWind SpeedGust SpeedPrecipitationEventsConditions
1:51 AM13.9 °C-7.2 °C23 %1015.9 hPa16.1 kmNE (50°)14.8 km/hPartly Cloudy
2:51 AM12.8 °C-5.6 °C28 %1016.3 hPa16.1 kmENE (70°)9.3 km/hPartly Cloudy
3:51 AM10.6 °C-2.8 °C39 %1016.3 hPa16.1 kmSE (130°)7.4 km/hPartly Cloudy
4:51 AM9.4 °C-1.7 °C46 %1016.6 hPa16.1 kmEast (100°)9.3 km/hScattered Clouds
5:51 AM8.3 °C-1.7 °C50 %1017.6 hPa16.1 kmEast (80°)9.3 km/hScattered Clouds
6:51 AM7.8 °C-2.2 °C50 %1019 hPa16.1 kmESE (110°)9.3 km/hMostly Cloudy
7:51 AM7.8 °C-1.7 °C51 %1019.6 hPa16.1 kmEast (80°)9.3 km/hMostly Cloudy
8:51 AM10.6 °C-1.1 °C44 %1019.6 hPa16.1 kmENE (70°)11.1 km/hOvercast
9:51 AM12.8 °C-0.6 °C40 %1019.3 hPa16.1 kmENE (70°)16.7 km/hOvercast
10:51 AM15 °C0 °C36 %1019 hPa16.1 kmEast (100°)14.8 km/hOvercast
11:51 AM16.1 °C-0.6 °C32 %1018.3 hPa16.1 kmVariable11.1 km/h25.9 km/hOvercast
12:51 PM17.8 °C0 °C30 %1016.9 hPa16.1 kmEast (100°)20.4 km/hOvercast
1:51 PM19.4 °C-1.7 °C24 %1014.6 hPa16.1 kmESE (120°)13 km/h25.9 km/hOvercast
2:51 PM21.1 °C-2.8 °C20 %1012.9 hPa16.1 kmSSE (150°)13 km/hOvercast
3:51 PM20.6 °C-2.8 °C21 %1011.9 hPa16.1 kmESE (120°)13 km/hOvercast
4:51 PM21.7 °C-2.8 °C19 %1011.2 hPa16.1 kmSouth (180°)9.3 km/hOvercast
5:51 PM21.1 °C-2.8 °C20 %1010.5 hPa16.1 kmSE (140°)5.6 km/hOvercast
6:51 PM21.1 °C-2.8 °C20 %1010.5 hPa16.1 kmCalmMostly Cloudy
7:51 PM18.9 °C-2.8 °C23 %1010.5 hPa16.1 kmEast (100°)5.6 km/hMostly Cloudy
8:51 PM18.3 °C-2.2 °C25 %1009.8 hPa16.1 kmSE (130°)7.4 km/hMostly Cloudy
9:51 PM17.8 °C-1.1 °C28 %1009.5 hPa16.1 kmCalmOvercast
10:51 PM18.3 °C-1.7 °C26 %1008.8 hPa16.1 kmCalmOvercast
11:51 PM13.9 °C-2.2 °C33 %1008.8 hPa16.1 kmEast (100°)7.4 km/hMostly Cloudy
Hourly data recorded from KELP, located 0 kilometers away from El Paso, Texas







STORIES FROM OUR PARTNERS